Weather History for KBNA - December, 2013

Change the Weather History Date:

Tuesday, December 3, 2013

  Actual Average Record
Temperature  
Mean Temperature 53 °F 44 °F  
Max Temperature 59 °F 53 °F 79 °F (1982)
Min Temperature 47 °F 34 °F 6 °F (1929)
Degree Days  
Heating Degree Days 12    
Month to date heating degree days 43  
Since 1 July heating degree days 777  
Cooling Degree Days 0    
Month to date cooling degree days 0  
Year to date cooling degree days 1731  
Growing Degree Days 4 (Base 50)    
Moisture  
Dew Point 50 °F    
Average Humidity 88    
Maximum Humidity 100    
Minimum Humidity 75    
Precipitation  
Precipitation 0.00 in 0.15 in 3.85 in (1978)
Month to date precipitation T 0.46  
Year to date precipitation 46.90 43.47  
Snow  
Snow 0.00 in 0.00 in 2.40 in (1942)
Month to date snowfall 0.0 0.0  
Since 1 July snowfall 0.5 T  
Snow Depth 0.00 in    
Sea Level Pressure  
Sea Level Pressure 29.79 in    
Wind  
Wind Speed 5 mph (SSE)    
Max Wind Speed 13 mph    
Max Gust Speed 15 mph    
Visibility 4 miles    
Events Fog    
T = Trace of Precipitation, MM = Missing Value Source: NWS Daily Summary

Daily Weather History Graph

Daily Weather History Graph

Search for Another Location

Airport or City:

Trip Planner

Search our weather history database for the weather conditions in past years. The results will help you decide how hot, cold, wet, or windy it might be!

Date:

Astronomy

Dec. 03, 2013 Rise Set
Actual Time 6:41 AM CST 4:32 PM CST
Civil Twilight 6:12 AM CST 5:00 PM CST
Nautical Twilight 5:41 AM CST 5:32 PM CST
Astronomical Twilight 5:09 AM CST 6:03 PM CST
Moon 7:10 AM CST (12/3) 5:34 PM CST (12/3)
Length of Visible Light 10h 47m
Length of Day
9h 50m
New Moon, 1% of the Moon is Illuminated
Dec 3
New Moon
Dec 9
First Quarter
Dec 17
Full
Dec 25
Last Quarter
Jan 1
New

Hourly Weather History & Observations

Time (CST) Temp. Dew Point Humidity Pressure Visibility Wind Dir Wind Speed Gust Speed Precip Events Conditions
12:53 AM 52.0 °F 50.0 °F 93% 29.79 in 4.0 mi ESE 3.5 mph - N/A   Overcast
1:53 AM 52.0 °F 50.0 °F 93% 29.79 in 4.0 mi SSE 4.6 mph - N/A   Overcast
2:53 AM 50.0 °F 48.0 °F 93% 29.79 in 3.0 mi Calm Calm - N/A Fog Partly Cloudy
3:31 AM 48.2 °F 46.4 °F 93% 29.79 in 1.2 mi Calm Calm - N/A Fog Partly Cloudy
3:38 AM 48.2 °F 46.4 °F 93% 29.78 in 0.2 mi Calm Calm - N/A Fog Fog
3:53 AM 48.0 °F 46.0 °F 93% 29.78 in 0.2 mi East 3.5 mph - N/A Fog Fog
4:10 AM 48.2 °F 46.4 °F 93% 29.78 in 0.5 mi Calm Calm - N/A Fog Fog
4:14 AM 46.4 °F 46.4 °F 100% 29.78 in 0.2 mi Calm Calm - N/A Fog Fog
4:17 AM 46.4 °F 46.4 °F 100% 29.78 in 0.2 mi Calm Calm - N/A Fog Fog
4:26 AM 48.2 °F 46.4 °F 93% 29.78 in 0.5 mi Calm Calm - N/A Fog Fog
4:39 AM 48.2 °F 46.4 °F 93% 29.78 in 0.5 mi Calm Calm - N/A Fog Fog
4:45 AM 48.2 °F 46.4 °F 93% 29.78 in 2.0 mi Calm Calm - N/A Fog Mostly Cloudy
4:53 AM 48.9 °F 46.9 °F 93% 29.78 in 2.0 mi Calm Calm - N/A Fog Mostly Cloudy
5:06 AM 48.2 °F 46.4 °F 93% 29.78 in 2.0 mi Calm Calm - N/A Fog Mostly Cloudy
5:10 AM 46.4 °F 46.4 °F 100% 29.78 in 0.8 mi Calm Calm - N/A Fog Mostly Cloudy
5:17 AM 48.2 °F 46.4 °F 93% 29.78 in 0.2 mi Calm Calm - N/A Fog Mostly Cloudy
5:46 AM 50.0 °F 48.2 °F 94% 29.79 in 0.5 mi South 4.6 mph - N/A Fog Fog
5:53 AM 50.0 °F 48.9 °F 96% 29.79 in 0.5 mi SSE 3.5 mph - N/A Fog Fog
5:56 AM 50.0 °F 48.2 °F 94% 29.79 in 0.2 mi South 3.5 mph - N/A Fog Fog
6:53 AM 51.1 °F 50.0 °F 96% 29.80 in 0.2 mi SSE 3.5 mph - N/A Fog Fog
7:26 AM 51.8 °F 50.0 °F 94% 29.81 in 0.5 mi Calm Calm - N/A Fog Fog
7:53 AM 52.0 °F 51.1 °F 97% 29.81 in 0.5 mi ESE 3.5 mph - N/A Fog Fog
8:53 AM 53.1 °F 52.0 °F 96% 29.82 in 1.0 mi SE 3.5 mph - N/A Fog Patches of Fog
9:25 AM 53.6 °F 51.8 °F 94% 29.83 in 2.0 mi SSE 4.6 mph - N/A Fog Patches of Fog
9:53 AM 55.9 °F 51.1 °F 84% 29.83 in 3.0 mi SE 5.8 mph - N/A   Haze
10:36 AM 57.2 °F 51.8 °F 82% 29.82 in 8.0 mi SSE 4.6 mph - N/A   Overcast
10:53 AM 59.0 °F 51.1 °F 75% 29.81 in 8.0 mi SSE 4.6 mph - N/A   Overcast
11:30 AM 57.2 °F 51.8 °F 82% 29.81 in 9.0 mi SSE 5.8 mph - N/A   Overcast
11:53 AM 57.0 °F 51.1 °F 81% 29.80 in 8.0 mi SSE 9.2 mph - N/A   Overcast
12:53 PM 57.9 °F 52.0 °F 81% 29.78 in 7.0 mi South 8.1 mph - N/A   Overcast
1:53 PM 57.9 °F 52.0 °F 81% 29.77 in 9.0 mi South 5.8 mph - N/A   Overcast
2:53 PM 57.9 °F 52.0 °F 81% 29.77 in 7.0 mi SE 6.9 mph - N/A   Overcast
3:53 PM 57.9 °F 53.1 °F 84% 29.78 in 7.0 mi SSE 6.9 mph - N/A   Overcast
4:53 PM 57.0 °F 52.0 °F 83% 29.78 in 9.0 mi SSE 4.6 mph - N/A   Overcast
5:43 PM 57.2 °F 51.8 °F 82% 29.79 in 9.0 mi SSE 3.5 mph - N/A   Overcast
5:53 PM 57.0 °F 52.0 °F 83% 29.78 in 9.0 mi Calm Calm - N/A   Overcast
6:53 PM 57.0 °F 52.0 °F 83% 29.79 in 8.0 mi SE 3.5 mph - N/A   Overcast
7:16 PM 55.4 °F 51.8 °F 88% 29.79 in 8.0 mi ESE 3.5 mph - N/A   Scattered Clouds
7:53 PM 54.0 °F 51.1 °F 90% 29.80 in 7.0 mi SSE 3.5 mph - N/A   Clear
8:35 PM 51.8 °F 50.0 °F 94% 29.81 in 5.0 mi South 5.8 mph - N/A   Overcast
8:53 PM 53.1 °F 51.1 °F 93% 29.81 in 5.0 mi South 4.6 mph - N/A   Overcast
9:53 PM 55.0 °F 52.0 °F 89% 29.82 in 6.0 mi SSE 4.6 mph - N/A   Overcast
10:33 PM 55.4 °F 53.6 °F 94% 29.82 in 7.0 mi South 6.9 mph - N/A   Overcast
10:53 PM 55.9 °F 53.1 °F 90% 29.81 in 7.0 mi SSE 9.2 mph - N/A   Overcast
11:53 PM 57.0 °F 54.0 °F 89% 29.81 in 6.0 mi South 11.5 mph - N/A   Overcast